CAPE
0 0 0 0 0 0 0 0 20 42 9 0 0 0 0 0 0 0 0 0 0 0 0 0 0 0 0 0 0 0 0 0 3 37 35 76 368 1018 1677 1786 1838 1694 1339 1456
0 0 0 0 0 0 0 105 206 232 39 0 0 0 0 0 0 0 0 0 0 0 0 0 0 0 0 0 0 0 0 0 0 2 27 24 4 196 1116 1392 1687 1670 1547 1515
0 0 0 0 0 0 74 221 179 47 0 0 0 0 0 0 0 0 0 0 0 0 0 0 0 0 0 0 0 0 0 0 0 0 0 1 54 75 305 1070 1315 1474 1614 1840
0 0 0 0 0 0 0 85 45 0 0 0 0 0 0 0 0 0 0 0 0 0 0 0 0 0 0 0 0 0 0 0 0 0 0 0 15 43 35 216 643 1348 1278 1378
0 0 0 0 0 0 0 0 149 16 0 0 0 0 0 0 0 0 0 0 0 0 0 0 0 0 0 0 0 0 0 0 0 0 0 0 0 0 0 0 13 253 910 1097
0 0 0 0 0 0 0 0 186 37 0 0 0 0 0 0 0 0 0 0 0 0 0 0 0 0 0 0 0 0 0 0 0 0 0 0 0 0 0 0 0 0 65 274
0 12 16 0 0 0 0 8 23 3 0 0 0 0 0 0 0 0 0 0 0 0 0 0 0 0 0 0 0 0 0 0 0 0 0 0 0 0 0 0 0 0 0 0
0 0 8 0 0 0 0 0 0 0 0 0 0 0 0 0 0 0 0 0 0 0 0 0 0 0 0 0 0 0 0 0 0 0 0 0 0 0 0 0 0 0 0 0
24 0 0 0 0 0 0 0 0 0 0 0 0 0 0 0 0 0 0 0 0 0 0 0 0 0 0 0 0 0 0 0 0 0 0 0 0 0 0 0 0 0 0 0
0 32 15 0 0 0 0 0 0 0 0 0 0 0 0 0 0 0 0 0 0 0 0 0 0 0 0 0 0 0 0 0 0 0 0 0 0 0 0 0 0 0 0 0
0 0 0 0 0 0 0 0 0 0 0 0 0 0 0 0 0 0 0 0 0 0 0 0 0 0 0 0 0 0 0 0 0 0 0 0 0 0 0 0 0 0 0 0
0 43 82 11 1 0 0 0 0 0 0 0 0 0 0 0 0 0 0 0 0 0 0 0 0 0 0 0 0 0 0 0 0 0 0 0 0 0 0 0 0 0 0 0
1 17 48 44 54 66 0 0 0 0 0 0 0 0 0 0 0 0 0 0 0 0 0 0 0 0 0 0 0 0 0 0 0 0 0 0 0 0 0 0 0 0 0 0
0 0 62 51 97 55 60 0 0 0 0 0 0 0 0 0 0 0 0 0 0 0 0 0 0 0 0 0 0 0 0 0 0 0 0 0 0 0 0 0 0 0 0 0
7 39 16 65 54 47 28 37 0 0 0 0 0 0 0 0 0 0 0 0 0 0 0 0 0 0 0 0 0 0 0 0 0 0 0 0 0 0 0 0 0 0 0 0
5 2 62 36 19 17 2 3 0 0 0 9 4 0 0 0 0 0 0 0 0 0 0 0 0 0 0 0 0 0 0 0 0 0 0 0 0 0 1 1 0 0 0 0
0 5 7 7 3 6 9 0 11 17 3 0 0 0 5 7 0 0 0 0 0 0 0 0 0 0 0 0 0 0 0 0 0 0 0 0 3 5 5 3 1 2 3 1
1 34 72 44 13 11 2 3 4 9 34 80 45 29 11 8 0 0 0 0 0 0 0 0 0 0 0 0 0 0 0 0 0 0 0 0 0 0 0 1 2 2 3 4
30 84 30 38 13 2 3 0 1 25 28 39 40 35 20 20 9 0 0 0 0 0 0 0 0 0 0 0 0 0 0 0 0 0 0 0 0 1 1 3 2 1 5 5
22 11 18 78 37 3 16 26 48 29 8 10 8 0 6 46 25 5 1 0 0 0 0 0 0 0 0 0 0 0 0 0 0 0 0 1 1 1 2 2 3 3 3 2
1 14 3 11 5 6 11 3 1 10 21 22 0 0 0 0 13 0 0 0 0 0 0 0 0 0 0 0 0 0 0 0 0 0 0 0 0 1 0 2 3 3 2 2
0 0 0 0 0 0 0 0 5 1 6 6 2 0 7 0 0 12 0 6 13 1 0 0 0 0 0 0 0 0 0 0 0 0 0 0 0 1 0 1 2 2 1 2
0 0 0 1 0 2 7 12 8 6 12 15 7 9 28 32 2 7 0 0 4 0 0 0 0 0 0 0 0 0 0 0 0 0 0 0 1 1 1 2 1 2 2 1
0 0 0 10 20 15 5 0 0 0 0 0 0 11 6 24 7 0 0 0 0 0 0 0 0 0 0 0 0 0 0 0 0 0 0 1 0 1 1 2 0 2 2 2
2 2 6 8 0 0 0 0 0 0 1 0 0 11 111 42 0 0 0 1 0 6 0 0 0 4 0 0 0 0 0 0 0 0 0 1 1 2 1 1 1 1 2 1
2 5 2 0 0 0 1 2 2 2 4 1 9 18 19 0 0 7 13 9 1 0 2 3 0 0 0 5 7 1 0 0 0 0 0 0 1 1 1 2 1 2 2 2
0 0 0 0 0 0 0 0 8 2 0 2 6 7 3 19 11 11 18 12 1 15 10 11 14 10 6 4 2 0 3 0 0 0 0 0 0 0 2 3 3 2 1 1
CIN
-0 -0 -0 -0 -0 -0 -0 -0 -56 -78 -134 -0 -0 -0 -0 -0 -0 -0 -0 -0 -0 -0 -0 -0 -0 -0 -0 -0 -0 -0 -0 -15 -45 -149 -200 -183 -96 -12 -12 -15 -21 -19 -21 -16
-0 -0 -0 -0 -0 -0 -0 -40 -61 -52 -99 -0 -0 -0 -0 -0 -0 -0 -0 -0 -0 -0 -0 -0 -0 -0 -0 -0 -0 -0 -0 -0 -0 -180 -189 -198 -103 -60 -4 -6 -7 -8 -17 -13
-0 -0 -0 -0 -0 -0 -50 -25 -35 -63 -0 -0 -0 -0 -0 -0 -0 -0 -0 -0 -0 -0 -0 -0 -0 -0 -0 -0 -0 -0 -0 -0 -0 -0 -0 -37 -152 -64 -127 -23 -3 -1 -4 -4
-0 -0 -0 -0 -0 -0 -0 -9 -28 -0 -0 -0 -0 -0 -0 -0 -0 -0 -0 -0 -0 -0 -0 -0 -0 -0 -0 -0 -0 -0 -0 -0 -0 -0 -0 -0 -84 -201 -244 -155 -65 -5 -3 -6
-0 -0 -0 -0 -0 -0 -0 -0 -7 -92 -0 -0 -0 -0 -0 -0 -0 -0 -0 -0 -0 -0 -0 -0 -0 -0 -0 -0 -0 -0 -0 -0 -0 -0 -0 -0 -0 -0 -0 -0 -31 -99 -30 -16
-0 -0 -0 -0 -0 -0 -0 -0 -6 -22 -0 -0 -0 -0 -0 -0 -0 -0 -0 -0 -0 -0 -0 -0 -0 -0 -0 -0 -0 -0 -0 -0 -0 -0 -0 -0 -0 -0 -0 -0 -0 -0 -169 -112
-0 -23 -21 -0 -0 -0 -0 -22 -42 -16 -0 -0 -0 -0 -0 -0 -0 -0 -0 -0 -0 -0 -0 -0 -0 -0 -0 -0 -0 -0 -0 -0 -0 -0 -0 -0 -0 -0 -0 -0 -0 -0 -0 -0
-0 -0 -5 -0 -0 -0 -0 -0 -0 -0 -0 -0 -0 -0 -0 -0 -0 -0 -0 -0 -0 -0 -0 -0 -0 -0 -0 -0 -0 -0 -0 -0 -0 -0 -0 -0 -0 -0 -0 -0 -0 -0 -0 -0
-9 -0 -0 -0 -0 -0 -0 -0 -0 -0 -0 -0 -0 -0 -0 -0 -0 -0 -0 -0 -0 -0 -0 -0 -0 -0 -0 -0 -0 -0 -0 -0 -0 -0 -0 -0 -0 -0 -0 -0 -0 -0 -0 -0
-1 -13 -20 -0 -3 -0 -0 -0 -0 -0 -0 -0 -0 -0 -0 -0 -0 -0 -0 -0 -0 -0 -0 -0 -0 -0 -0 -0 -0 -0 -0 -0 -0 -0 -0 -0 -0 -0 -0 -0 -0 -0 -0 -0
-0 -0 -0 -2 -0 -0 -0 -0 -0 -0 -0 -0 -0 -0 -0 -0 -0 -0 -0 -0 -0 -0 -0 -0 -0 -0 -0 -0 -0 -0 -0 -0 -0 -0 -0 -0 -0 -0 -0 -0 -0 -0 -0 -0
-0 -18 -13 -10 -7 -0 -0 -0 -0 -0 -0 -0 -0 -0 -0 -0 -0 -0 -0 -0 -0 -0 -0 -0 -0 -0 -0 -0 -0 -0 -0 -0 -0 -0 -0 -0 -0 -0 -0 -0 -0 -0 -0 -0
-2 -55 -24 -24 -22 -11 -0 -0 -0 -0 -0 -0 -0 -0 -0 -0 -0 -0 -0 -0 -0 -0 -0 -0 -0 -0 -0 -0 -0 -0 -0 -0 -0 -0 -0 -0 -0 -0 -0 -0 -0 -0 -0 -0
-0 -0 -11 -27 -25 -14 -10 -0 -0 -0 -0 -0 -0 -0 -0 -0 -0 -0 -0 -0 -0 -0 -0 -0 -0 -0 -0 -0 -0 -0 -0 -0 -0 -0 -0 -0 -0 -0 -0 -0 -0 -0 -0 -0
-6 -15 -10 -31 -36 -12 -11 -8 -0 -0 -0 -0 -0 -0 -0 -0 -0 -0 -0 -0 -0 -0 -0 -0 -0 -0 -0 -0 -0 -0 -0 -0 -0 -0 -0 -0 -0 -0 -0 -0 -0 -0 -0 -0
-17 -5 -13 -37 -46 -29 -32 -4 -6 -0 -0 -4 -4 -0 -0 -0 -0 -0 -0 -0 -0 -0 -0 -0 -0 -0 -0 -0 -0 -0 -0 -0 -0 -0 -2 -0 -0 -1 -1 -1 -1 -0 -0 -0
-0 -3 -61 -16 -19 -29 -25 -0 -5 -5 -14 -0 -0 -0 -15 -22 -1 -0 -0 -0 -0 -0 -0 -0 -0 -0 -0 -0 -0 -0 -0 -0 -0 -0 -0 -0 -0 -0 -0 -0 -0 -0 -1 -2
-4 -31 -12 -9 -10 -15 -8 -7 -4 -6 -5 -1 -2 -7 -22 -34 -28 -0 -0 -0 -0 -0 -0 -0 -0 -0 -0 -0 -0 -0 -0 -0 -0 -0 -0 -0 -0 -0 -0 -0 -0 -0 -0 -0
-32 -18 -34 -38 -30 -24 -12 -10 -5 -20 -41 -21 -6 -8 -24 -41 -55 -13 -0 -0 -0 -0 -0 -0 -0 -0 -0 -0 -0 -0 -0 -0 -0 -0 -0 -0 -0 -0 -0 -0 -0 -0 -0 -0
-18 -27 -38 -30 -57 -22 -14 -25 -12 -21 -31 -17 -24 -13 -22 -19 -28 -42 -57 -0 -0 -0 -0 -0 -0 -0 -0 -0 -0 -0 -0 -0 -0 -0 -0 -0 -0 -0 -1 -1 -0 -0 -0 -0
-22 -42 -26 -26 -19 -18 -20 -38 -41 -24 -19 -15 -4 -0 -0 -0 -13 -2 -0 -0 -0 -0 -0 -0 -0 -0 -0 -0 -0 -0 -0 -0 -0 -0 -0 -0 -0 -0 -0 -0 -0 -0 -0 -0
-0 -0 -0 -0 -0 -0 -0 -0 -46 -50 -21 -25 -5 -0 -44 -0 -0 -25 -0 -17 -9 -12 -0 -0 -0 -0 -0 -0 -0 -0 -0 -0 -0 -0 -0 -0 -0 -0 -0 -0 -0 -0 -0 -0
-0 -0 -0 -16 -0 -26 -25 -16 -10 -16 -17 -16 -8 -13 -10 -14 -16 -7 -1 -0 -10 -0 -0 -0 -0 -0 -0 -0 -0 -0 -0 -0 -0 -0 -0 -0 -0 -0 -0 -0 -0 -0 -0 -0
-0 -0 -0 -21 -25 -22 -34 -0 -0 -0 -0 -0 -3 -32 -17 -26 -19 -0 -0 -0 -0 -0 -0 -0 -0 -0 -0 -0 -0 -0 -0 -0 -0 -0 -0 -0 -0 -0 -0 -0 -0 -0 -0 -0
-0 -3 -10 -16 -0 -0 -0 -0 -0 -0 -1 -0 -0 -43 -12 -39 -0 -0 -0 -13 -0 -27 -0 -0 -0 -32 -0 -0 -0 -3 -0 -0 -0 -0 -0 -0 -0 -0 -0 -0 -0 -0 -0 -0
-6 -16 -28 -0 -0 -0 -3 -4 -4 -3 -2 -5 -7 -4 -9 -10 -0 -16 -66 -40 -16 -0 -12 -25 -0 -0 -16 -46 -24 -9 -0 -0 -0 -0 -0 -0 -0 -0 -0 -0 -0 -0 -0 -0
-0 -0 -0 -0 -0 -0 -0 -0 -5 -7 -0 -5 -1 -1 -11 -29 -27 -33 -42 -32 -15 -23 -28 -23 -32 -29 -27 -14 -13 -0 -34 -0 -0 -0 -0 -0 -0 -0 -0 -0 -0 -0 -0 -0
Wind_Speed
18 22 25 27 33 36 35 30 26 18 20 15 11 11 10 10 8 9 10 10 10 9 10 10 8 10 11 15 17 20 18 23 23 23 22 25 22 28 22 19 17 29 28 26
31 26 25 28 28 29 32 21 14 14 16 10 6 5 6 5 5 5 7 8 9 9 9 9 8 10 12 14 15 15 14 16 19 21 19 27 25 33 26 31 31 28 27 24
29 27 30 28 22 18 11 10 14 20 17 11 10 8 7 5 6 5 5 7 8 9 10 10 11 11 13 14 14 14 13 16 19 21 19 23 19 28 26 28 33 31 30 29
27 25 33 24 20 17 11 10 10 10 12 14 13 6 5 3 5 6 7 8 9 10 10 11 12 14 13 14 14 14 14 15 16 21 21 21 21 24 25 25 27 28 31 32
25 28 31 33 25 22 20 18 12 11 10 9 8 7 8 6 6 7 8 10 11 13 12 13 15 15 16 16 15 17 17 18 18 20 22 24 24 26 27 28 29 28 29 31
25 28 32 25 21 23 16 23 9 9 11 12 13 22 18 9 7 9 10 12 14 15 15 16 19 19 19 20 19 20 21 21 22 23 23 25 27 27 30 30 33 32 33 32
27 28 25 23 20 20 25 25 16 12 13 16 22 21 12 10 12 12 13 15 15 16 18 19 20 20 21 22 24 24 24 24 25 25 27 27 28 29 30 32 32 33 35 35
21 24 29 19 19 21 14 11 9 9 11 11 13 13 13 16 17 16 16 17 16 17 19 20 21 22 23 25 26 27 28 28 28 28 28 29 31 31 32 32 33 34 35 36
19 19 16 16 14 15 15 14 13 10 10 11 12 14 15 17 17 18 18 18 19 21 22 22 23 22 24 26 26 28 29 29 31 31 31 31 32 32 33 33 34 34 34 35
19 16 16 16 17 17 16 17 17 15 14 14 15 15 16 14 15 16 18 19 20 22 22 23 23 24 25 26 27 28 30 31 32 32 33 33 33 32 33 33 35 35 35 35
12 15 22 18 15 16 19 20 19 16 17 18 14 14 13 14 14 15 17 18 18 19 21 22 23 23 24 26 27 29 30 31 32 33 34 35 35 36 37 37 37 40 40 41
7 20 22 20 20 16 15 16 17 18 17 15 14 16 14 13 13 15 17 14 16 19 19 20 22 24 25 26 27 29 30 31 32 33 35 36 38 39 37 40 42 44 45 44
14 18 24 26 27 22 19 15 13 14 14 16 15 15 14 14 14 14 15 13 15 17 17 20 23 24 26 26 27 29 31 32 33 34 35 36 38 40 44 42 41 43 45 48
16 21 24 24 25 24 19 15 12 13 12 11 13 14 14 15 14 14 12 13 14 16 18 20 21 23 25 26 29 31 32 33 34 35 36 38 40 42 44 46 48 48 43 46
15 13 18 23 26 24 14 12 14 15 16 16 14 13 15 12 12 13 15 15 16 19 18 20 21 23 23 27 30 31 33 34 35 36 38 40 42 43 44 47 48 49 48 46
22 21 16 18 21 21 21 20 15 15 16 18 17 17 17 16 17 18 19 17 20 20 21 22 21 22 25 28 30 31 32 34 36 38 40 41 42 45 47 48 50 50 50 49
18 18 14 11 12 19 25 22 13 10 14 17 20 18 19 17 15 15 17 17 17 17 21 20 20 22 25 28 30 32 34 35 38 39 41 42 44 46 47 49 51 52 52 50
14 14 15 14 12 8 17 15 20 20 18 17 15 15 13 16 17 16 16 14 13 16 19 18 19 22 24 27 28 32 33 35 38 40 42 43 44 46 48 49 51 53 54 53
14 12 12 13 13 14 18 15 19 24 25 24 20 17 13 16 15 13 14 13 15 17 18 16 17 20 24 27 29 32 33 37 40 42 44 45 46 45 47 48 50 51 52 53
18 19 19 17 11 14 13 10 16 22 20 25 21 24 30 22 15 14 14 15 15 17 15 14 16 20 22 25 26 30 31 36 39 43 46 48 47 48 47 48 48 50 51 52
20 18 17 17 18 19 20 22 23 26 28 27 28 28 29 29 30 26 18 17 14 12 11 12 15 20 21 21 24 28 31 34 37 41 46 47 47 47 47 47 47 47 48 49
20 21 22 23 23 23 24 25 25 26 27 29 28 28 29 28 32 25 22 19 17 8 11 14 14 16 18 18 23 26 26 29 32 37 42 44 45 46 46 46 46 47 48 48
22 22 23 24 25 27 28 29 29 29 29 28 28 28 27 24 19 19 19 17 14 14 13 12 15 12 15 20 23 25 25 28 32 36 40 41 43 43 44 43 44 45 46 47
21 22 22 25 26 28 30 31 33 33 33 30 29 27 24 19 18 17 14 12 14 8 11 14 15 15 16 19 21 24 25 26 29 32 37 39 40 40 40 41 42 43 44 45
21 20 23 26 27 28 30 31 34 34 30 31 29 24 18 13 13 12 11 12 4 7 11 14 13 12 17 20 20 20 20 23 24 28 35 37 38 39 38 39 40 41 42 42
24 22 24 25 25 27 26 26 24 27 22 19 18 11 6 6 7 5 8 12 11 11 13 10 12 14 16 19 19 20 19 19 20 24 28 32 35 38 37 37 37 38 39 39
24 22 23 24 26 26 27 26 24 25 27 25 23 6 1 2 5 6 15 15 16 13 9 10 10 11 16 19 20 20 19 17 17 19 22 29 32 34 35 35 36 36 36 37
Wind_Direction
275 263 275 276 270 252 250 261 263 244 247 253 260 265 276 286 299 302 315 326 336 329 310 316 320 307 318 304 315 279 281 298 284 271 272 272 273 264 267 273 275 246 250 258
256 272 274 275 282 258 258 270 257 239 242 241 247 252 269 283 296 315 339 343 332 331 330 325 322 337 332 337 338 309 300 306 295 283 285 275 267 275 265 256 258 262 263 271
258 268 270 267 280 289 288 268 245 244 240 230 243 252 258 271 292 318 350 1 354 341 337 336 333 334 342 348 348 340 345 311 299 285 289 288 275 268 273 267 258 262 264 265
262 267 250 264 291 291 302 286 268 224 222 234 238 234 251 302 301 309 323 342 348 343 344 344 350 352 349 349 353 350 340 333 325 282 292 288 288 281 280 277 274 271 266 265
267 259 263 264 270 277 284 272 276 238 217 221 223 242 277 294 310 312 317 326 325 327 335 333 336 332 337 339 343 339 335 331 319 306 303 286 286 286 286 283 282 281 278 273
269 265 261 272 277 277 290 266 254 248 230 230 245 255 258 275 294 314 322 319 314 318 322 322 320 320 319 320 330 326 327 325 319 315 314 305 300 297 290 288 279 280 278 278
268 268 273 277 287 285 260 265 262 251 255 251 260 265 253 275 290 300 305 306 312 314 314 312 315 315 310 311 311 317 318 317 315 313 307 305 303 302 299 291 288 284 278 279
285 277 266 298 287 273 276 287 287 273 268 264 262 267 272 277 280 288 294 300 306 309 310 313 315 310 308 307 309 309 308 308 309 308 308 306 303 300 298 296 296 291 284 282
305 291 300 302 298 294 283 279 283 282 280 273 270 274 280 278 281 286 289 296 302 305 305 309 311 310 307 307 309 309 308 307 305 303 303 303 302 300 298 297 293 291 294 289
308 306 303 291 291 290 291 281 285 282 283 280 275 275 278 285 290 288 293 297 304 304 304 306 311 311 310 310 312 310 306 305 306 304 303 303 301 301 299 298 294 292 293 293
326 309 300 298 291 287 287 287 277 283 277 277 269 272 276 283 289 295 297 300 305 307 307 308 312 313 315 315 315 309 307 306 305 304 304 302 300 299 296 295 294 292 291 289
327 311 308 300 291 284 284 284 283 278 276 278 278 273 280 278 286 294 299 302 307 308 308 311 313 314 316 319 319 315 311 309 308 307 304 303 301 298 300 297 294 290 288 288
327 309 298 298 292 296 273 273 280 278 276 275 278 276 276 277 284 292 298 300 310 310 316 314 313 312 315 318 319 316 313 312 311 310 308 306 304 301 298 300 299 296 292 288
332 317 304 301 292 294 289 261 260 274 273 273 273 274 276 276 281 288 294 302 312 314 316 317 316 316 318 322 320 317 316 314 312 311 309 308 306 303 300 297 295 295 297 293
337 331 319 306 298 291 280 268 256 263 268 267 272 273 273 271 275 286 294 299 306 307 311 313 315 317 323 324 323 320 319 318 316 314 312 309 306 304 303 299 296 294 295 295
336 331 332 318 305 293 279 278 268 264 269 270 266 268 272 268 276 284 289 292 296 297 301 306 309 314 319 322 324 325 325 323 320 317 314 311 309 305 302 300 297 294 292 291
350 342 346 337 327 304 280 273 275 256 268 267 271 272 269 267 273 281 288 289 296 298 300 308 311 315 321 323 324 325 325 326 324 321 318 314 310 307 304 300 296 294 291 290
3 0 356 354 345 321 295 283 283 285 285 287 275 275 267 262 268 273 284 282 291 302 304 308 314 317 323 324 324 326 326 327 326 325 323 319 315 311 306 302 298 294 291 290
12 6 357 351 351 335 299 289 278 286 296 291 287 281 269 267 264 263 273 268 282 293 300 307 313 318 320 322 323 325 325 325 325 325 323 319 316 313 309 304 301 297 293 290
357 345 343 345 342 339 327 309 304 304 293 295 300 288 282 290 266 259 259 263 277 294 304 304 311 318 321 325 326 327 327 326 326 326 325 321 317 314 310 306 303 300 295 291
357 358 351 344 336 330 322 320 313 302 294 298 294 291 284 283 285 286 262 263 273 291 302 308 311 317 322 326 328 330 329 329 330 328 327 325 320 316 312 307 304 301 299 295
1 354 347 340 334 327 324 320 315 308 303 300 299 295 291 281 280 277 285 279 289 276 302 309 315 315 320 327 330 331 332 334 335 334 333 329 323 317 312 309 306 304 301 298
4 358 349 341 333 325 320 316 313 310 307 304 299 297 291 286 283 270 268 276 287 293 298 313 315 317 323 327 329 332 331 332 334 336 336 333 328 321 316 314 311 307 304 301
6 3 0 351 343 336 328 321 314 307 302 300 298 300 298 287 285 280 279 282 286 284 292 307 319 329 331 332 333 334 335 336 335 339 338 336 335 330 325 321 317 313 308 304
22 23 11 4 358 349 341 333 325 317 309 299 293 292 290 291 285 279 281 289 262 288 299 309 322 334 337 338 338 339 339 341 342 342 339 340 341 338 332 323 316 313 311 307
24 28 23 20 17 15 9 348 348 13 11 346 332 323 302 306 313 265 276 279 300 304 308 337 336 337 344 343 342 344 347 347 348 347 349 350 348 344 336 324 320 320 319 316
32 37 42 42 40 46 38 19 17 34 42 45 27 288 256 3 54 313 279 286 297 323 334 337 342 346 345 347 346 350 353 352 358 360 1 355 355 353 345 336 332 329 328 326